Location: Skalnate Pleso
(49.1889°N, 20.2450°E)
Time: 20:14:45
(UTC+01:00)

Cosmos 2151 - Pass Details

Date: 19 November 2019
Orbit: 581 x 602 km, 82.5° (Epoch: 14 December)

Event Time Altitude Azimuth Distance (km) Brightness Sun altitude
Rises 04:42:27 0° 194° (SSW) 2,841 6.4 -21.3°
Reaches altitude 10° 04:44:39 10° 196° (SSW) 1,943 5.5 -20.9°
Maximum altitude 04:48:57 72° 281° (W) 639 2.8 -20.2°
Drops below altitude 10° 04:53:17 10° 6° (N) 1,956 5.6 -19.5°
Sets 04:55:30 0° 9° (N) 2,862 6.5 -19.2°
